User: anonymous   Login
Location: Unspecified
(0.0000°N, 0.0000°E)
Time: 13:04:07
(UTC+00:00)
Language:

Kosmos-2218 - Orbit

View from above orbital plane
View from above orbital plane
View from above satellite
View from above satellite

Ground track
Ground track

The orbit data is extracted from the following two-line orbital elements,

1 22207U 92073A   21015.62912352  .00000015  00000-0 -44679-6 0  9996
2 22207  82.9222 160.5862 0033867  98.7443 272.7670 13.72885562413444
Epoch (UTC): 15 January 2021 15:05:56
Eccentricity: 0.0033867
inclination: 82.9222°
perigee height: 964 km
apogee height: 1014 km
right ascension of ascending node: 160.5862°
argument of perigee: 98.7443°
revolutions per day: 13.72885562
mean anomaly at epoch: 272.7670°
orbit number at epoch: 41344

The dashed part of the orbit path shows where the satellite is in the earth's shadow,  

DLR